This is the latest recevied weather packets stored in our database for station/object NY5V. If no packets are shown the sender has not sent any weather packets the latest 10 day(s).
| Time | Temp. | Humidity | Pressure | Rain* | Wind** | Luminosity | Snow |
|---|---|---|---|---|---|---|---|
| 1777591166 | 15° C | 99% | 1012 hPa | 0 mm | - | 13 W/m² | - |
| 1777590563 | 15° C | 99% | 1011.8 hPa | 0 mm | - | 15 W/m² | - |
| 1777589963 | 15° C | 99% | 1011.7 hPa | 0 mm | - | 25 W/m² | - |
| 1777589363 | 15° C | 99% | 1012.1 hPa | 0 mm | - | 28 W/m² | - |
| 1777588762 | 15.56° C | 99% | 1012.9 hPa | 0 mm | - | 10 W/m² | - |
| 1777588158 | 15.56° C | 99% | 1012.8 hPa | 0 mm | - | 9 W/m² | - |
| 1777587556 | 15.56° C | 99% | 1012.1 hPa | 0 mm | - | 34 W/m² | - |
| 1777586952 | 15.56° C | 98% | 1012.3 hPa | 0 mm | - | 21 W/m² | - |
| 1777586349 | 15.56° C | 99% | 1012.4 hPa | 0 mm | - | 33 W/m² | - |
| 1777585747 | 15.56° C | 99% | 1012.6 hPa | 0 mm | - | 24 W/m² | - |
| 1777585143 | 15.56° C | 99% | 1013 hPa | 0 mm | - | 32 W/m² | - |
| 1777584542 | 15.56° C | 99% | 1013 hPa | 0 mm | - | 35 W/m² | - |
| 1777583938 | 15.56° C | 99% | 1012.5 hPa | 0 mm | - | 38 W/m² | - |
| 1777583333 | 15.56° C | 99% | 1012.3 hPa | 1.78 mm | - | 49 W/m² | - |
| 1777582732 | 15.56° C | 99% | 1012.9 hPa | 0 mm | - | 57 W/m² | - |
| 1777582127 | 15.56° C | 98% | 1013.1 hPa | 0 mm | - | 49 W/m² | - |
| 1777581525 | 15.56° C | 98% | 1013 hPa | 0 mm | - | 65 W/m² | - |
| 1777580920 | 15.56° C | 98% | 1012.9 hPa | 1.27 mm | - | 66 W/m² | - |
| 1777580317 | 15.56° C | 98% | 1013.2 hPa | 1.27 mm | - | 78 W/m² | - |
| 1777579715 | 15.56° C | 98% | 1013.1 hPa | 0 mm | - | 68 W/m² | - |
| 1777579116 | 16.11° C | 98% | 1013.8 hPa | 1.78 mm | - | 91 W/m² | - |
| 1777578511 | 15.56° C | 98% | 1014 hPa | 1.27 mm | - | 77 W/m² | - |
| 1777577907 | 15.56° C | 99% | 1014.2 hPa | 0 mm | - | 62 W/m² | - |
| 1777577306 | 15.56° C | 99% | 1014 hPa | 0 mm | - | 57 W/m² | - |
| 1777576706 | 15.56° C | 99% | 1013.5 hPa | 0 mm | - | 75 W/m² | - |
* Rain latest hour (hover to see other rain measurements)
** Current wind speed in m/s (hover to see current wind gust speed)